Weather History for Evanston, WY

Change the Weather History Date:

Friday, July 12, 2013

  Actual Average Record
Temperature  
Mean Temperature 63 °F 66 °F  
Max Temperature 73 °F 80 °F 93 °F (2012)
Min Temperature 53 °F 52 °F 42 °F (1997)
Degree Days  
Heating Degree Days 2 1  
Month to date heating degree days 2 24  
Since 1 June heating degree days 135 254  
Since 1 July heating degree days 2 24  
Cooling Degree Days 0 2  
Month to date cooling degree days 68 19  
Year to date cooling degree days 123 33  
Since 1 June cooling degree days 123 32  
Growing Degree Days 14 (Base 50)    
Moisture  
Dew Point 48 °F    
Average Humidity 67    
Maximum Humidity 93    
Minimum Humidity 41    
Precipitation  
Precipitation 0.03 in 0.02 in 0.03 in (2001)
Month to date precipitation 0.10 0.39  
Year to date precipitation 2.11 6.56  
Sea Level Pressure  
Sea Level Pressure 29.95 in    
Wind  
Wind Speed 4 mph (SSW)    
Max Wind Speed 10 mph    
Max Gust Speed -    
Visibility 10 miles    
Events Rain    
T = Trace of Precipitation, MM = Missing Value Source: NWS Daily Summary

Daily Weather History Graph

Daily Weather History Graph

Search for Another Location

Airport:

Trip Planner

Search our weather history database for the weather conditions in past years. The results will help you decide how hot, cold, wet, or windy it might be!

Date:

Astronomy

Jul. 12, 2013 Rise Set
Actual Time 6:02 AM MDT 8:57 PM MDT
Civil Twilight 5:29 AM MDT 9:30 PM MDT
Nautical Twilight 4:47 AM MDT 10:11 PM MDT
Astronomical Twilight 3:58 AM MDT 11:00 PM MDT
Moon 10:25 AM MDT (7/12) 11:05 PM MDT (7/12)
Length of Visible Light 16h 01m
Length of Day
14h 55m
Waxing Crescent, 18% of the Moon is Illuminated
Jul 12
Waxing Crescent
Jul 15
First Quarter
Jul 22
Full
Jul 29
Last Quarter
Aug 6
New

Hourly Weather History & Observations

Time (MDT) Temp. Dew Point Humidity Pressure Visibility Wind Dir Wind Speed Gust Speed Precip Events Conditions
12:53 AM 57.0 °F 46.0 °F 67% 29.90 in 10.0 mi Calm Calm - N/A   Scattered Clouds
1:53 AM 57.9 °F 46.9 °F 67% 29.87 in 10.0 mi Calm Calm - 0.00 in   Overcast
2:53 AM 55.9 °F 46.9 °F 72% 29.87 in 10.0 mi SSE 4.6 mph - N/A   Mostly Cloudy
3:53 AM 57.0 °F 46.0 °F 67% 29.88 in 10.0 mi South 3.5 mph - N/A   Mostly Cloudy
4:53 AM 55.9 °F 46.9 °F 72% 29.88 in 10.0 mi Calm Calm - N/A   Overcast
5:53 AM 57.0 °F 46.9 °F 69% 29.91 in 10.0 mi NNW 4.6 mph - N/A   Overcast
6:53 AM 55.9 °F 48.9 °F 77% 29.94 in 10.0 mi Calm Calm - 0.00 in Rain Light Rain
7:53 AM 54.0 °F 50.0 °F 86% 29.98 in 4.0 mi Calm Calm - 0.01 in Rain Rain
8:53 AM 55.0 °F 53.1 °F 93% 30.00 in 8.0 mi Calm Calm - 0.02 in Rain Light Rain
9:53 AM 55.9 °F 54.0 °F 93% 30.01 in 10.0 mi South 4.6 mph - 0.00 in Rain Light Rain
10:53 AM 57.0 °F 54.0 °F 89% 30.02 in 10.0 mi South 6.9 mph - 0.00 in   Overcast
11:53 AM 59.0 °F 53.1 °F 81% 30.03 in 10.0 mi South 6.9 mph - 0.00 in Rain Light Rain
12:53 PM 61.0 °F 54.0 °F 78% 30.03 in 10.0 mi South 6.9 mph - 0.00 in   Overcast
1:53 PM 62.1 °F 53.1 °F 72% 30.02 in 10.0 mi Variable 3.5 mph - 0.00 in Rain Light Rain
2:53 PM 64.0 °F 50.0 °F 60% 30.01 in 10.0 mi Calm Calm - 0.00 in   Overcast
3:53 PM 69.1 °F 48.0 °F 47% 29.97 in 10.0 mi South 6.9 mph - N/A   Clear
4:53 PM 72.0 °F 46.0 °F 40% 29.94 in 10.0 mi WNW 3.5 mph - N/A   Clear
5:53 PM 73.0 °F 44.1 °F 35% 29.92 in 10.0 mi Variable 4.6 mph - N/A   Clear
6:53 PM 73.0 °F 45.0 °F 37% 29.91 in 10.0 mi SW 10.4 mph - N/A   Clear
7:53 PM 71.1 °F 44.1 °F 38% 29.93 in 10.0 mi SSW 10.4 mph - N/A   Clear
8:53 PM 66.0 °F 46.0 °F 48% 29.95 in 10.0 mi SSW 6.9 mph - N/A   Clear
9:53 PM 64.0 °F 46.0 °F 52% 29.96 in 10.0 mi SW 6.9 mph - N/A   Clear
10:53 PM 61.0 °F 46.9 °F 60% 29.98 in 10.0 mi SW 5.8 mph - N/A   Clear
11:53 PM 60.1 °F 46.9 °F 62% 29.99 in 10.0 mi WSW 6.9 mph - N/A   Clear